[[{"header":{"parameterUnit":"m.s-1","parameterCategory":1,"la1":30.2991,"la2":30.254,"lo1":-89.0895,"lo2":-89.0444,"dy":0.0017,"dx":0.0017,"nx":28,"ny":28,"refTime":"2025-11-15T09:00:00:Z","depth":0,"parameterNumber":2,"parameterNumberName":"U-component_of_WINDS"},"data":[0,0,0,0,0,0,0,0,0,0,0,0,0,0,0,0,0,0,0,0,0,0,0,0,0,0,0,0,0,0,0,0,0,0,0,0,0,0,0,0,0,0,0,0,0,0,0,0,0,0,0,0,0,0,0,0,0,0,-1.249,-1.2491,0,-1.2529,-1.253,-1.253,-1.248,-1.2478,-1.2476,-1.2474,-1.2516,-1.2518,-1.2521,0,0,0,0,0,0,0,0,0,0,0,0,0,-1.2374,-1.2376,-1.249,-1.2491,-1.2491,-1.2529,-1.253,-1.253,-1.248,-1.2478,-1.2476,-1.2474,-1.2515,-1.2518,-1.2522,0,0,0,0,0,0,0,0,0,0,0,0,0,-1.242,-1.2377,-1.249,-1.2471,-1.2469,-1.2529,-1.253,-1.253,-1.2481,-1.2478,-1.2475,-1.2472,-1.2514,-1.2518,-1.2522,-1.2603,0,0,-1.2535,-1.2537,0,0,0,0,0,0,0,0,-1.2418,-1.2424,-1.2473,-1.2472,-1.2471,-1.2497,-1.2504,-1.2555,-1.2481,-1.2476,-1.2474,-1.2471,-1.2512,-1.2516,-1.2529,-1.2605,-1.2607,-1.2535,-1.2538,-1.254,-1.2541,0,0,0,0,0,0,0,-1.2414,-1.2422,-1.2506,-1.2474,-1.2472,-1.2461,-1.2464,-1.2513,-1.2509,-1.2477,-1.2473,-1.2478,-1.2511,-1.2525,-1.253,-1.2607,-1.2535,-1.2539,-1.2542,-1.2543,-1.2753,-1.2756,0,0,0,0,0,0,-1.2413,-1.242,-1.2504,-1.2507,-1.2437,-1.2465,-1.2469,-1.2491,-1.2508,-1.2508,-1.2481,-1.2476,-1.252,-1.2525,-1.2531,-1.2629,-1.254,-1.2544,-1.2546,-1.275,-1.2754,-1.2757,0,0,0,0,0,0,-1.2411,-1.2421,-1.2503,-1.2463,-1.2472,-1.247,-1.2495,-1.2493,-1.2508,-1.2511,-1.251,-1.2496,-1.2518,-1.2525,-1.2586,-1.2629,-1.2545,-1.2549,-1.2747,-1.2751,-1.2755,-1.2824,0,0,0,0,0,0,-1.2408,-1.2421,-1.2451,-1.2464,-1.2474,-1.2557,-1.2498,-1.2496,-1.2515,-1.251,-1.2526,-1.2526,-1.2516,-1.258,-1.259,-1.2634,-1.2553,-1.2743,-1.2749,-1.2754,-1.2818,-1.283,-1.2841,0,0,0,0,0,-1.2404,-1.2469,-1.2453,-1.2463,-1.2512,-1.2559,-1.2565,-1.2552,-1.2519,-1.255,-1.2552,-1.2526,-1.2623,-1.2586,-1.2598,-1.2643,-1.274,-1.2747,-1.2754,-1.2812,-1.2828,-1.284,0,0,0,0,0,0,-1.2462,-1.247,-1.2453,-1.2523,-1.2541,-1.2551,-1.2589,-1.2568,-1.2596,-1.259,-1.2572,-1.2576,-1.2641,-1.2648,-1.2607,-1.2723,-1.2676,-1.2685,-1.2717,-1.2731,-1.2743,-1.274,-1.2556,0,0,0,0,0,-1.2483,-1.252,-1.2525,-1.2587,-1.2597,-1.2592,-1.2612,-1.26,-1.2617,-1.2625,-1.2631,-1.265,-1.2685,-1.2708,-1.274,-1.2818,-1.2821,-1.2855,-1.2866,-1.2875,-1.2884,-1.2928,-1.2943,-1.278,-1.278,-1.2779,0,0,-1.2527,-1.2536,-1.256,-1.2599,-1.2611,-1.2651,-1.2598,-1.2642,-1.2671,-1.2631,-1.269,-1.2695,-1.2715,-1.2785,-1.2816,-1.2792,-1.293,-1.2884,-1.2892,-1.2896,-1.2936,-1.2952,-1.2965,-1.2784,-1.2783,-1.2783,0,0,-1.2628,-1.2637,-1.2691,-1.2704,-1.2723,-1.2719,-1.2732,-1.2745,-1.2747,-1.2805,-1.2776,-1.2811,-1.2871,-1.2887,-1.2902,-1.3009,-1.2986,-1.302,-1.3081,-1.3123,-1.3136,-1.3148,-1.3187,-1.3202,-1.3029,-1.3029,-1.3029,0,-1.268,-1.2738,-1.2721,-1.2767,-1.2786,-1.2751,-1.2805,-1.2819,-1.2848,-1.2862,-1.2835,-1.291,-1.2921,-1.2994,-1.3021,-1.3034,-1.3049,-1.3019,-1.3136,-1.3147,-1.3157,-1.3195,-1.321,-1.3033,-1.3032,-1.3032,-1.3032,0,-1.2802,-1.2843,-1.2884,-1.2912,-1.2935,-1.2985,-1.2977,-1.3002,-1.2988,-1.2988,-1.3048,-1.3059,-1.3093,-1.311,-1.3096,-1.3182,-1.3167,-1.3138,-1.3091,-1.3177,-1.3213,-1.3227,-1.3039,-1.3037,-1.3036,-1.3035,0,0,-1.2942,-1.296,-1.2976,-1.2989,-1.3007,-1.3039,-1.3088,-1.3121,-1.3144,-1.3164,-1.3206,-1.3258,-1.3231,-1.3249,-1.3237,-1.3274,-1.336,-1.3241,-1.3241,-1.3264,-1.3457,-1.3481,-1.3497,-1.3344,-1.3347,-1.3349,-1.3456,0,-1.3043,-1.3128,-1.3114,-1.3196,-1.3234,-1.3202,-1.3244,-1.3261,-1.3262,-1.3295,-1.3295,-1.3333,-1.3294,-1.3305,-1.334,-1.3343,-1.3399,-1.3334,-1.3384,-1.3386,-1.3383,-1.3516,-1.354,-1.3641,-1.347,-1.3472,-1.3474,0,-1.3174,-1.32,-1.3286,-1.3299,-1.3315,-1.3353,-1.3383,-1.3415,-1.3433,-1.3431,-1.3451,-1.3433,-1.3483,-1.3433,-1.3502,-1.3458,-1.3478,-1.3482,-1.3486,-1.3492,-1.3437,-1.3527,-1.3672,-1.3688,-1.3495,-1.3493,-1.3492,0,-1.3269,-1.3325,-1.3384,-1.3396,-1.3413,-1.3441,-1.345,-1.3465,-1.3486,-1.3512,-1.3526,-1.3558,-1.3576,-1.3601,-1.3592,-1.3557,-1.3664,-1.3613,-1.3665,-1.3666,-1.3691,-1.369,-1.3843,-1.37,-1.37,-1.37,-1.3699,0,-1.3386,-1.344,-1.3427,-1.3464,-1.3524,-1.3508,-1.3568,-1.3573,-1.3587,-1.3624,-1.3597,-1.3633,-1.3618,-1.3654,-1.3647,-1.3706,-1.3714,-1.3715,-1.3713,-1.3718,-1.3719,-1.3732,-1.3726,-1.3704,-1.3703,-1.3702,-1.3701,0,-1.3503,-1.3496,-1.3559,-1.357,-1.3574,-1.3618,-1.3627,-1.3662,-1.366,-1.3708,-1.3718,-1.3716,-1.3756,-1.3749,-1.3794,-1.3789,-1.3864,-1.3852,-1.3858,-1.3856,-1.3909,-1.3905,-1.4078,-1.4101,-1.3942,-1.3943,-1.3944,0,-1.3579,-1.362,-1.3635,-1.3658,-1.3668,-1.3705,-1.3727,-1.3713,-1.3736,-1.3761,-1.3793,-1.383,-1.386,-1.3926,-1.3929,-1.3963,-1.3953,-1.4011,-1.3958,-1.3963,-1.3956,-1.3955,-1.3959,-1.4022,-1.4024,-1.4026,-1.4027,0,-1.3714,-1.3709,-1.3741,-1.3772,-1.3799,-1.3823,-1.3844,-1.3864,-1.3852,-1.388,-1.3921,-1.3944,-1.3989,-1.4027,-1.4059,-1.4068,-1.4047,-1.4043,-1.4058,-1.4065,-1.4067,-1.4069,-1.3889,-1.404,-1.4039,-1.4038,-1.4037,-1.4036,-1.3814,-1.385,-1.3866,-1.3903,-1.3917,-1.3938,-1.3972,-1.3974,-1.4008,-1.4043,-1.4033,-1.4079,-1.4097,-1.4138,-1.4151,-1.4187,-1.4166,-1.4186,-1.4191,-1.4197,-1.4205,-1.406,-1.4193,-1.4192,-1.4192,-1.4192,-1.4192,0,-1.395,-1.3959,-1.3993,-1.4024,-1.4053,-1.4028,-1.4051,-1.4077,-1.4119,-1.4137,-1.4167,-1.4214,-1.4251,-1.4257,-1.4292,-1.432,-1.4312,-1.433,-1.4329,-1.4332,-1.4221,-1.4206,-1.4337,-1.4337,-1.4337,-1.4337,-1.4337,-1.4337,-1.4024,-1.4084,-1.4081,-1.4147,-1.4156,-1.4201,-1.4216,-1.4236,-1.425,-1.4304,-1.4335,-1.4338,-1.4352,-1.4388,-1.4421,-1.4422,-1.4437,-1.4461,-1.4458,-1.4354,-1.434,-1.4326,-1.4312,-1.4464,-1.4464,-1.4566,-1.4567,-1.4568]},{"header":{"parameterUnit":"m.s-1","parameterCategory":1,"la1":30.2991,"la2":30.254,"lo1":-89.0895,"lo2":-89.0444,"dy":0.0017,"dx":0.0017,"nx":28,"ny":28,"refTime":"2025-11-15T09:00:00:Z","depth":0,"parameterNumber":3,"parameterNumberName":"V-component_of_WINDS"},"data":[0,0,0,0,0,0,0,0,0,0,0,0,0,0,0,0,0,0,0,0,0,0,0,0,0,0,0,0,0,0,0,0,0,0,0,0,0,0,0,0,0,0,0,0,0,0,0,0,0,0,0,0,0,0,0,0,0,0,-0.3479,-0.3479,0,-0.3487,-0.3487,-0.3487,-0.3464,-0.3463,-0.3462,-0.3462,-0.3471,-0.3472,-0.3473,0,0,0,0,0,0,0,0,0,0,0,0,0,-0.3443,-0.3444,-0.3479,-0.3479,-0.3479,-0.3487,-0.3487,-0.3487,-0.3464,-0.3463,-0.3462,-0.3461,-0.3471,-0.3472,-0.3473,0,0,0,0,0,0,0,0,0,0,0,0,0,-0.3456,-0.3444,-0.3479,-0.3468,-0.3467,-0.3487,-0.3487,-0.3487,-0.3464,-0.3463,-0.3462,-0.3461,-0.347,-0.3472,-0.3473,-0.3503,0,0,-0.3477,-0.3478,0,0,0,0,0,0,0,0,-0.3455,-0.3457,-0.347,-0.3469,-0.3468,-0.3473,-0.3478,-0.3493,-0.3464,-0.3465,-0.3462,-0.346,-0.3473,-0.3474,-0.3478,-0.3504,-0.3504,-0.3477,-0.3478,-0.3479,-0.3479,0,0,0,0,0,0,0,-0.3454,-0.3457,-0.3482,-0.347,-0.3469,-0.3463,-0.3464,-0.3481,-0.3475,-0.3465,-0.3463,-0.3465,-0.3472,-0.3476,-0.3478,-0.3504,-0.3477,-0.3479,-0.3479,-0.348,-0.3555,-0.3556,0,0,0,0,0,0,-0.3455,-0.3456,-0.3482,-0.3482,-0.3459,-0.3465,-0.3465,-0.3473,-0.3475,-0.3474,-0.3466,-0.3464,-0.3475,-0.3476,-0.3478,-0.3513,-0.3479,-0.348,-0.3481,-0.3554,-0.3555,-0.3556,0,0,0,0,0,0,-0.3454,-0.3457,-0.3481,-0.3469,-0.3471,-0.3467,-0.3475,-0.3473,-0.3478,-0.3475,-0.3474,-0.3471,-0.3474,-0.3476,-0.3497,-0.3513,-0.3481,-0.3482,-0.3552,-0.3554,-0.3556,-0.3584,0,0,0,0,0,0,-0.3453,-0.3457,-0.3469,-0.3469,-0.3472,-0.35,-0.3476,-0.3474,-0.348,-0.3478,-0.348,-0.3479,-0.3473,-0.3495,-0.3498,-0.3515,-0.3483,-0.3551,-0.3553,-0.3555,-0.3582,-0.3587,-0.3591,0,0,0,0,0,-0.3452,-0.3477,-0.347,-0.3473,-0.3486,-0.3501,-0.3503,-0.3495,-0.3482,-0.3493,-0.3491,-0.3479,-0.3511,-0.3497,-0.3501,-0.3518,-0.355,-0.3552,-0.3555,-0.358,-0.3586,-0.3591,0,0,0,0,0,0,-0.3479,-0.3477,-0.3469,-0.3494,-0.3498,-0.3497,-0.3512,-0.3502,-0.351,-0.3507,-0.3497,-0.3498,-0.352,-0.3521,-0.3506,-0.3547,-0.3528,-0.3531,-0.3546,-0.3551,-0.3556,-0.3555,-0.3484,0,0,0,0,0,-0.3488,-0.35,-0.3498,-0.3521,-0.3523,-0.3517,-0.3523,-0.3516,-0.352,-0.3522,-0.3521,-0.3526,-0.3536,-0.3544,-0.3554,-0.3582,-0.3582,-0.3595,-0.3599,-0.3603,-0.3606,-0.3621,-0.3627,-0.3565,-0.3565,-0.3565,0,0,-0.3507,-0.3507,-0.3516,-0.3526,-0.3528,-0.3541,-0.3519,-0.3533,-0.3543,-0.3524,-0.3544,-0.3544,-0.3548,-0.3572,-0.3583,-0.3573,-0.3623,-0.3606,-0.3609,-0.3611,-0.3624,-0.363,-0.3635,-0.3566,-0.3566,-0.3566,0,0,-0.3548,-0.3549,-0.3568,-0.357,-0.3574,-0.3569,-0.3574,-0.3574,-0.3573,-0.3593,-0.3579,-0.359,-0.3609,-0.3612,-0.3616,-0.3656,-0.3646,-0.366,-0.3684,-0.3698,-0.3703,-0.3707,-0.3722,-0.3727,-0.3663,-0.3663,-0.3663,0,-0.3571,-0.359,-0.3579,-0.3595,-0.36,-0.3582,-0.3602,-0.3604,-0.3611,-0.3615,-0.3604,-0.3626,-0.3628,-0.3652,-0.3662,-0.3666,-0.3671,-0.366,-0.3703,-0.3707,-0.3711,-0.3725,-0.373,-0.3665,-0.3665,-0.3664,-0.3664,0,-0.3618,-0.3631,-0.3646,-0.3651,-0.3658,-0.3675,-0.3667,-0.3675,-0.3668,-0.3664,-0.3684,-0.3685,-0.3694,-0.3699,-0.3692,-0.3723,-0.3717,-0.3705,-0.3686,-0.3719,-0.3731,-0.3736,-0.3667,-0.3667,-0.3666,-0.3666,0,0,-0.3677,-0.3676,-0.3682,-0.3684,-0.3686,-0.3696,-0.3712,-0.372,-0.3727,-0.3731,-0.3745,-0.376,-0.3749,-0.3753,-0.3746,-0.3759,-0.379,-0.3745,-0.3745,-0.3753,-0.3824,-0.3833,-0.3839,-0.3783,-0.3784,-0.3785,-0.3823,0,-0.3717,-0.3744,-0.3735,-0.3763,-0.3775,-0.3758,-0.3772,-0.3774,-0.3771,-0.3781,-0.3778,-0.3789,-0.3773,-0.3775,-0.3787,-0.3784,-0.3804,-0.3781,-0.3795,-0.3796,-0.3795,-0.3846,-0.3856,-0.3893,-0.3828,-0.3829,-0.383,0,-0.3768,-0.3774,-0.3803,-0.3801,-0.3806,-0.3819,-0.3825,-0.3834,-0.3837,-0.3834,-0.3838,-0.3828,-0.3844,-0.3824,-0.3845,-0.383,-0.3835,-0.3834,-0.3835,-0.3837,-0.3815,-0.3849,-0.3904,-0.391,-0.3837,-0.3837,-0.3836,0,-0.3808,-0.3824,-0.3842,-0.3845,-0.3844,-0.3853,-0.3853,-0.3854,-0.386,-0.3865,-0.3869,-0.3877,-0.3881,-0.3887,-0.3879,-0.3866,-0.3902,-0.3881,-0.39,-0.39,-0.3909,-0.3908,-0.3966,-0.3911,-0.3911,-0.3911,-0.3911,0,-0.3854,-0.3873,-0.386,-0.3872,-0.3892,-0.3881,-0.3901,-0.3899,-0.39,-0.3911,-0.3897,-0.3908,-0.3897,-0.3906,-0.39,-0.3919,-0.3921,-0.3919,-0.3917,-0.392,-0.3921,-0.3924,-0.3921,-0.3913,-0.3912,-0.3912,-0.3912,0,-0.3903,-0.3896,-0.3915,-0.3912,-0.3912,-0.3927,-0.3924,-0.3935,-0.3931,-0.3945,-0.3947,-0.3941,-0.3951,-0.3944,-0.3955,-0.3951,-0.3975,-0.3969,-0.3974,-0.3973,-0.3991,-0.399,-0.4053,-0.4061,-0.4001,-0.4002,-0.4002,0,-0.3934,-0.3947,-0.3945,-0.3951,-0.3952,-0.3962,-0.3967,-0.3957,-0.3963,-0.3965,-0.3976,-0.3985,-0.3992,-0.4009,-0.4006,-0.4013,-0.4008,-0.403,-0.4009,-0.4012,-0.4009,-0.4008,-0.4009,-0.4034,-0.4035,-0.4036,-0.4036,0,-0.3988,-0.3983,-0.3991,-0.3997,-0.4003,-0.4008,-0.4012,-0.4017,-0.4006,-0.4014,-0.4024,-0.4029,-0.4039,-0.4049,-0.4055,-0.4055,-0.4044,-0.4042,-0.4047,-0.4051,-0.4053,-0.4052,-0.3986,-0.4041,-0.4041,-0.404,-0.404,-0.404,-0.4028,-0.4039,-0.4039,-0.4048,-0.4049,-0.4053,-0.4062,-0.4059,-0.4067,-0.4074,-0.4067,-0.408,-0.4081,-0.4088,-0.4089,-0.4099,-0.409,-0.4097,-0.4098,-0.41,-0.4103,-0.4051,-0.41,-0.41,-0.4099,-0.4099,-0.4099,0,-0.4082,-0.4081,-0.4089,-0.4094,-0.4101,-0.4088,-0.4091,-0.4098,-0.4109,-0.4111,-0.4117,-0.4129,-0.4137,-0.4134,-0.4141,-0.415,-0.4145,-0.4152,-0.4151,-0.4152,-0.4111,-0.4106,-0.4156,-0.4156,-0.4156,-0.4156,-0.4156,-0.4156,-0.411,-0.4128,-0.4123,-0.4141,-0.414,-0.4152,-0.4154,-0.4157,-0.4158,-0.4172,-0.4179,-0.4176,-0.4175,-0.4183,-0.419,-0.4188,-0.4192,-0.4201,-0.4198,-0.416,-0.4155,-0.4149,-0.4145,-0.4202,-0.4202,-0.4239,-0.4239,-0.4239]}]]